Вернуться в каталог

COSMOS 1275 DEB

АктивенPO
NORAD 12759·DEBRIS·🇷🇺 Russia

Запущен Jun 4, 1981 с Plesetsk Cosmodrome

Loading…

Ближайшие Пролёты (ближайшие 24 часа)

TLE

СвежийSource: Space-Track

Эпоха: Sep 14, 2026, 05:58 UTC

1 12759U 81053DC  26257.24898920  .00000564  00000-0  33709-3 0  9995
2 12759  82.8647 344.0995 0043696 353.0793  35.5485 14.05148483294769

Отслеживайте COSMOS 1275 DEB в реальном времени с AllMySat

Download on the App Store